Time,TemperatureF,DewpointF,PressureIn,WindDirection,WindDirectionDegrees,WindSpeedMPH,WindSpeedGustMPH,Humidity,HourlyPrecipIn,Conditions,Clouds,dailyrainin,SoftwareType,DateUTC
2013-04-08 00:06:00,58.1,57.5,29.97,SE,135,0.0,-999.0,98,-99.99,,,0.00,Acu-Link.com,2013-04-08 04:06:00,
2013-04-08 00:36:00,57.4,56.8,29.97,ENE,67,0.0,-999.0,98,-99.99,,,0.00,Acu-Link.com,2013-04-08 04:36:00,
2013-04-08 00:52:00,57.0,56.4,29.97,ESE,112,0.0,-999.0,98,-99.99,,,0.00,Acu-Link.com,2013-04-08 04:52:00,
2013-04-08 01:07:00,56.7,56.1,29.97,NE,45,0.0,-999.0,98,-99.99,,,0.00,Acu-Link.com,2013-04-08 05:07:00,
2013-04-08 01:22:00,56.1,55.5,29.97,ESE,112,0.0,-999.0,98,-99.99,,,0.00,Acu-Link.com,2013-04-08 05:22:00,
2013-04-08 01:37:00,55.4,54.8,29.97,ESE,112,0.0,-999.0,98,-99.99,,,0.00,Acu-Link.com,2013-04-08 05:37:00,
2013-04-08 01:52:00,55.0,54.4,29.97,ESE,112,0.0,-999.0,98,-99.99,,,0.00,Acu-Link.com,2013-04-08 05:52:00,
2013-04-08 02:07:00,54.3,53.7,29.97,NNE,22,0.0,-999.0,98,-99.99,,,0.00,Acu-Link.com,2013-04-08 06:07:00,
2013-04-08 02:22:00,53.6,53.0,29.96,ESE,112,0.0,-999.0,98,-99.99,,,0.00,Acu-Link.com,2013-04-08 06:22:00,
2013-04-08 02:37:00,53.2,52.6,29.96,SSE,157,0.0,-999.0,98,-99.99,,,0.00,Acu-Link.com,2013-04-08 06:37:00,
2013-04-08 02:52:00,53.4,52.8,29.96,West,270,0.0,-999.0,98,-99.99,,,0.00,Acu-Link.com,2013-04-08 06:52:00,
2013-04-08 03:08:00,53.1,52.5,29.96,NNE,22,0.0,-999.0,98,-99.99,,,0.00,Acu-Link.com,2013-04-08 07:08:00,
2013-04-08 03:23:00,53.2,52.6,29.95,SSW,202,0.0,-999.0,98,-99.99,,,0.00,Acu-Link.com,2013-04-08 07:23:00,
2013-04-08 03:38:00,53.8,53.2,29.95,NNE,22,0.0,-999.0,98,-99.99,,,0.00,Acu-Link.com,2013-04-08 07:38:00,
2013-04-08 03:53:00,54.0,53.4,29.95,SSE,157,0.0,-999.0,98,-99.99,,,0.00,Acu-Link.com,2013-04-08 07:53:00,
2013-04-08 04:09:00,54.0,53.4,29.95,South,180,0.0,-999.0,98,-99.99,,,0.00,Acu-Link.com,2013-04-08 08:09:00,
2013-04-08 04:24:00,54.0,53.4,29.95,ESE,112,0.0,-999.0,98,-99.99,,,0.00,Acu-Link.com,2013-04-08 08:24:00,
2013-04-08 04:39:00,54.0,53.4,29.95,South,180,0.0,-999.0,98,-99.99,,,0.00,Acu-Link.com,2013-04-08 08:39:00,
2013-04-08 04:54:00,54.0,53.4,29.95,SSW,202,0.0,-999.0,98,-99.99,,,0.00,Acu-Link.com,2013-04-08 08:54:00,
2013-04-08 05:09:00,54.1,53.5,29.96,NNW,337,0.0,-999.0,98,-99.99,,,0.00,Acu-Link.com,2013-04-08 09:09:00,
2013-04-08 05:24:00,54.0,53.4,29.96,South,180,0.0,-999.0,98,-99.99,,,0.00,Acu-Link.com,2013-04-08 09:24:00,
2013-04-08 05:39:00,53.8,53.2,29.96,SSW,202,1.1,-999.0,98,-99.99,,,0.00,Acu-Link.com,2013-04-08 09:39:00,
2013-04-08 05:55:00,53.6,53.0,29.96,South,180,1.1,-999.0,98,-99.99,,,0.00,Acu-Link.com,2013-04-08 09:55:00,
2013-04-08 06:10:00,54.0,53.4,29.97,SSE,157,2.2,-999.0,98,-99.99,,,0.00,Acu-Link.com,2013-04-08 10:10:00,
2013-04-08 06:25:00,54.0,53.4,29.97,ESE,112,0.0,-999.0,98,-99.99,,,0.00,Acu-Link.com,2013-04-08 10:25:00,
2013-04-08 06:40:00,53.8,53.2,29.98,SSE,157,1.1,-999.0,98,-99.99,,,0.00,Acu-Link.com,2013-04-08 10:40:00,
2013-04-08 06:55:00,54.0,53.4,29.99,South,180,1.7,-999.0,98,-99.99,,,0.00,Acu-Link.com,2013-04-08 10:55:00,
2013-04-08 07:10:00,54.1,53.5,29.99,SSW,202,2.2,-999.0,98,-99.99,,,0.00,Acu-Link.com,2013-04-08 11:10:00,
2013-04-08 07:25:00,55.0,54.4,30.00,SSE,157,0.0,-999.0,98,-99.99,,,0.00,Acu-Link.com,2013-04-08 11:25:00,
2013-04-08 07:40:00,56.1,55.5,30.01,WSW,247,0.0,-999.0,98,-99.99,,,0.00,Acu-Link.com,2013-04-08 11:40:00,
2013-04-08 07:56:00,57.0,56.4,30.01,ENE,67,1.1,-999.0,98,-99.99,,,0.00,Acu-Link.com,2013-04-08 11:56:00,
2013-04-08 08:11:00,57.9,57.3,30.02,West,270,1.7,-999.0,98,-99.99,,,0.00,Acu-Link.com,2013-04-08 12:11:00,
2013-04-08 09:11:00,63.9,63.3,30.02,West,270,5.8,-999.0,98,-99.99,,,0.00,Acu-Link.com,2013-04-08 13:11:00,
2013-04-08 09:26:00,65.1,64.5,30.01,SSE,157,4.7,-999.0,98,-99.99,,,0.00,Acu-Link.com,2013-04-08 13:26:00,
2013-04-08 09:56:00,67.1,66.5,30.01,West,270,3.2,-999.0,98,-99.99,,,0.00,Acu-Link.com,2013-04-08 13:56:00,
2013-04-08 10:12:00,68.2,67.6,30.01,ENE,67,2.7,-999.0,98,-99.99,,,0.00,Acu-Link.com,2013-04-08 14:12:00,
2013-04-08 10:27:00,69.6,69.0,30.01,WNW,292,4.7,-999.0,98,-99.99,,,0.00,Acu-Link.com,2013-04-08 14:27:00,
2013-04-08 10:57:00,72.0,71.4,30.01,North,0,2.2,-999.0,98,-99.99,,,0.00,Acu-Link.com,2013-04-08 14:57:00,
2013-04-08 11:12:00,72.7,72.1,30.01,East,90,4.7,-999.0,98,-99.99,,,0.00,Acu-Link.com,2013-04-08 15:12:00,
2013-04-08 11:27:00,72.7,72.1,30.01,ENE,67,4.7,-999.0,98,-99.99,,,0.00,Acu-Link.com,2013-04-08 15:27:00,
2013-04-08 11:42:00,74.1,73.5,30.00,South,180,3.7,-999.0,98,-99.99,,,0.00,Acu-Link.com,2013-04-08 15:42:00,
2013-04-08 11:57:00,75.2,74.6,30.00,NNE,22,1.7,-999.0,98,-99.99,,,0.00,Acu-Link.com,2013-04-08 15:57:00,
2013-04-08 12:12:00,74.1,73.5,29.99,South,180,6.8,-999.0,98,-99.99,,,0.00,Acu-Link.com,2013-04-08 16:12:00,
2013-04-08 12:28:00,76.8,76.2,29.99,North,0,3.7,-999.0,98,-99.99,,,0.00,Acu-Link.com,2013-04-08 16:28:00,
2013-04-08 12:43:00,75.9,75.3,29.98,West,270,3.2,-999.0,98,-99.99,,,0.00,Acu-Link.com,2013-04-08 16:43:00,
2013-04-08 13:13:00,76.5,72.3,29.96,NNW,337,3.7,-999.0,87,-99.99,,,0.00,Acu-Link.com,2013-04-08 17:13:00,
2013-04-08 13:28:00,76.1,69.8,29.95,ESE,112,1.7,-999.0,81,-99.99,,,0.00,Acu-Link.com,2013-04-08 17:28:00,
2013-04-08 13:43:00,75.7,68.0,29.95,South,180,4.2,-999.0,77,-99.99,,,0.00,Acu-Link.com,2013-04-08 17:43:00,
2013-04-08 13:58:00,77.7,63.6,29.94,NE,45,5.3,-999.0,62,-99.99,,,0.00,Acu-Link.com,2013-04-08 17:58:00,
2013-04-08 14:13:00,77.4,63.8,29.93,SW,225,3.2,-999.0,63,-99.99,,,0.00,Acu-Link.com,2013-04-08 18:13:00,
2013-04-08 14:28:00,79.9,62.3,29.93,WNW,292,3.2,-999.0,55,-99.99,,,0.00,Acu-Link.com,2013-04-08 18:28:00,
2013-04-08 14:44:00,77.9,65.6,29.93,SE,135,2.2,-999.0,66,-99.99,,,0.00,Acu-Link.com,2013-04-08 18:44:00,
2013-04-08 14:59:00,80.2,63.1,29.92,SSE,157,3.2,-999.0,56,-99.99,,,0.00,Acu-Link.com,2013-04-08 18:59:00,
2013-04-08 15:14:00,80.4,63.2,29.91,SW,225,2.7,-999.0,56,-99.99,,,0.00,Acu-Link.com,2013-04-08 19:14:00,
2013-04-08 15:29:00,78.6,64.0,29.91,ENE,67,2.2,-999.0,61,-99.99,,,0.00,Acu-Link.com,2013-04-08 19:29:00,
2013-04-08 15:44:00,77.9,62.9,29.91,SSW,202,1.7,-999.0,60,-99.99,,,0.00,Acu-Link.com,2013-04-08 19:44:00,
2013-04-08 15:59:00,79.3,64.2,29.90,SSE,157,2.2,-999.0,60,-99.99,,,0.00,Acu-Link.com,2013-04-08 19:59:00,
2013-04-08 16:29:00,79.5,61.9,29.90,South,180,3.7,-999.0,55,-99.99,,,0.00,Acu-Link.com,2013-04-08 20:29:00,
2013-04-08 16:44:00,79.2,62.1,29.89,ESE,112,3.2,-999.0,56,-99.99,,,0.00,Acu-Link.com,2013-04-08 20:44:00,
2013-04-08 17:00:00,79.0,61.9,29.88,SSE,157,2.7,-999.0,56,-99.99,,,0.00,Acu-Link.com,2013-04-08 21:00:00,
2013-04-08 17:15:00,78.8,61.8,29.88,South,180,3.2,-999.0,56,-99.99,,,0.00,Acu-Link.com,2013-04-08 21:15:00,
2013-04-08 17:30:00,78.3,62.3,29.89,West,270,4.2,-999.0,58,-99.99,,,0.00,Acu-Link.com,2013-04-08 21:30:00,
2013-04-08 17:45:00,77.9,62.4,29.88,NNE,22,4.7,-999.0,59,-99.99,,,0.00,Acu-Link.com,2013-04-08 21:45:00,
2013-04-08 18:00:00,78.1,63.1,29.89,WSW,247,2.2,-999.0,60,-99.99,,,0.00,Acu-Link.com,2013-04-08 22:00:00,
2013-04-08 18:30:00,76.3,62.8,29.89,NW,315,1.7,-999.0,63,-99.99,,,0.00,Acu-Link.com,2013-04-08 22:30:00,
2013-04-08 18:46:00,75.6,62.5,29.89,WNW,292,2.2,-999.0,64,-99.99,,,0.00,Acu-Link.com,2013-04-08 22:46:00,
2013-04-08 19:31:00,72.9,65.3,29.90,South,180,1.1,-999.0,77,-99.99,,,0.00,Acu-Link.com,2013-04-08 23:31:00,
2013-04-08 19:47:00,71.2,66.8,29.90,SW,225,0.0,-999.0,86,-99.99,,,0.00,Acu-Link.com,2013-04-08 23:47:00,
2013-04-08 20:02:00,69.4,68.2,29.90,NNW,337,0.0,-999.0,96,-99.99,,,0.00,Acu-Link.com,2013-04-09 00:02:00,
2013-04-08 20:32:00,66.9,66.3,29.91,SE,135,0.0,-999.0,98,-99.99,,,0.00,Acu-Link.com,2013-04-09 00:32:00,
2013-04-08 20:47:00,65.7,65.1,29.91,South,180,0.0,-999.0,98,-99.99,,,0.00,Acu-Link.com,2013-04-09 00:47:00,
2013-04-08 21:02:00,65.1,64.5,29.91,SSE,157,0.0,-999.0,98,-99.99,,,0.00,Acu-Link.com,2013-04-09 01:02:00,
2013-04-08 21:18:00,64.4,63.8,29.92,SSE,157,0.0,-999.0,98,-99.99,,,0.00,Acu-Link.com,2013-04-09 01:18:00,
2013-04-08 21:48:00,64.0,63.4,29.93,WSW,247,2.7,-999.0,98,-99.99,,,0.00,Acu-Link.com,2013-04-09 01:48:00,
2013-04-08 22:03:00,63.7,63.1,29.93,ESE,112,0.0,-999.0,98,-99.99,,,0.00,Acu-Link.com,2013-04-09 02:03:00,
2013-04-08 22:18:00,64.4,63.8,29.95,South,180,1.7,-999.0,98,-99.99,,,0.00,Acu-Link.com,2013-04-09 02:18:00,
2013-04-08 22:33:00,65.5,64.9,29.94,South,180,2.2,-999.0,98,-99.99,,,0.00,Acu-Link.com,2013-04-09 02:33:00,
2013-04-08 22:48:00,65.1,64.5,29.95,NW,315,2.2,-999.0,98,-99.99,,,0.00,Acu-Link.com,2013-04-09 02:48:00,
2013-04-08 23:49:00,63.5,62.9,29.94,NE,45,0.0,-999.0,98,-99.99,,,0.00,Acu-Link.com,2013-04-09 03:49:00,